| time (UTC) | temp F | wind direction | speed knots | gust knots | rain 1hr in | rain 24hr in | rain mn in | humidity % | barometer mb |
| 20260503210057 | 76 | 326 | 0.9 | 8.7 | 0.00 | 0.00 | 0.00 | 44 | 1011.3 |
| 20260503204510 | 76 | 55 | 0.9 | 7.8 | 0.00 | 0.00 | 0.00 | 47 | 1011.5 |
| 20260503203021 | 75 | 16 | 0.9 | 7.8 | 0.00 | 0.00 | 0.00 | 47 | 1011.7 |
| 20260503201509 | 74 | 359 | 3.5 | 10.4 | 0.00 | 0.00 | 0.00 | 48 | 1011.9 |
| 20260503200056 | 74 | 346 | 1.7 | 7.8 | 0.00 | 0.00 | 0.00 | 50 | 1012.0 |
| 20260503194510 | 73 | 97 | 1.7 | 7.8 | 0.00 | 0.00 | 0.00 | 49 | 1012.3 |
| 20260503193035 | 72 | 19 | 2.6 | 7.8 | 0.00 | 0.00 | 0.00 | 52 | 1012.5 |
| 20260503191533 | 72 | 297 | 1.7 | 7.0 | 0.00 | 0.00 | 0.00 | 53 | 1012.6 |
| 20260503190049 | 71 | 42 | 3.5 | 8.7 | 0.00 | 0.00 | 0.00 | 53 | 1012.7 |
| 20260503184558 | 71 | 330 | 1.7 | 8.7 | 0.00 | 0.00 | 0.00 | 55 | 1012.8 |
| 20260503183051 | 71 | 56 | 1.7 | 7.0 | 0.00 | 0.00 | 0.00 | 56 | 1013.1 |
| 20260503181603 | 71 | 35 | 2.6 | 4.3 | 0.00 | 0.00 | 0.00 | 56 | 1013.1 |
| 20260503181501 | 71 | 29 | 1.7 | 4.3 | 0.00 | 0.00 | 0.00 | 55 | 1013.1 |
| 20260503180013 | 69 | 61 | 1.7 | 6.1 | 0.00 | 0.00 | 0.00 | 58 | 1013.1 |
| 20260503174526 | 69 | 328 | 1.7 | 5.2 | 0.00 | 0.00 | 0.00 | 57 | 1013.3 |
| 20260503173055 | 69 | 4 | 1.7 | 7.8 | 0.00 | 0.00 | 0.00 | 58 | 1013.3 |
| 20260503171507 | 69 | 18 | 2.6 | 9.6 | 0.00 | 0.00 | 0.00 | 58 | 1013.3 |
| 20260503081608 | 64 | 60 | 1.7 | 4.3 | 0.00 | 0.00 | 0.00 | 54 | 1013.9 |
| 20260503081502 | 64 | 60 | 2.6 | 4.3 | 0.00 | 0.00 | 0.00 | 54 | 1013.9 |
| 20260503071547 | 65 | 38 | 2.6 | 7.8 | 0.00 | 0.00 | 0.00 | 52 | 1013.8 |
| 20260503054525 | 64 | 16 | 0.9 | 7.0 | 0.00 | 0.00 | 0.00 | 54 | 1013.6 |
| 20260503053019 | 64 | 29 | 0.9 | 4.3 | 0.00 | 0.00 | 0.00 | 56 | 1013.6 |
| 20260503051527 | 63 | 24 | 0.0 | 3.5 | 0.00 | 0.00 | 0.00 | 60 | 1013.6 |
| 20260503050015 | 63 | 24 | 0.9 | 2.6 | 0.00 | 0.00 | 0.00 | 62 | 1013.4 |
| 20260503044556 | 63 | 25 | 0.0 | 1.7 | 0.00 | 0.00 | 0.00 | 63 | 1013.4 |
| 20260503044512 | 63 | 25 | 0.0 | 1.7 | 0.00 | 0.00 | 0.00 | 63 | 1013.4 |
| 20260503043019 | 63 | 24 | 0.0 | 1.7 | 0.00 | 0.00 | 0.00 | 64 | 1013.3 |
| 20260503041511 | 64 | 24 | 0.9 | 2.6 | 0.00 | 0.00 | 0.00 | 64 | 1013.1 |
| 20260503040022 | 64 | 24 | 0.9 | 4.3 | 0.00 | 0.00 | 0.00 | 63 | 1013.1 |
| 20260503034521 | 64 | 24 | 0.9 | 4.3 | 0.00 | 0.00 | 0.00 | 62 | 1012.7 |
| 20260503033011 | 65 | 21 | 0.0 | 2.6 | 0.00 | 0.00 | 0.00 | 61 | 1012.6 |
| 20260503031551 | 65 | 11 | 0.9 | 3.5 | 0.00 | 0.00 | 0.00 | 60 | 1012.5 |
| 20260503030042 | 66 | 80 | 1.7 | 7.8 | 0.00 | 0.00 | 0.00 | 58 | 1012.3 |
| 20260503024520 | 67 | 8 | 0.0 | 6.1 | 0.00 | 0.00 | 0.00 | 56 | 1012.3 |
| 20260503023032 | 67 | 29 | 1.7 | 9.6 | 0.00 | 0.00 | 0.00 | 56 | 1012.2 |
| 20260503021544 | 68 | 25 | 4.3 | 10.4 | 0.00 | 0.00 | 0.00 | 54 | 1012.1 |
| 20260503020032 | 70 | 62 | 0.9 | 8.7 | 0.00 | 0.00 | 0.00 | 51 | 1012.1 |
| 20260503014550 | 70 | 40 | 2.6 | 9.6 | 0.00 | 0.00 | 0.00 | 51 | 1012.1 |
| 20260503013031 | 71 | 10 | 2.6 | 10.4 | 0.00 | 0.00 | 0.00 | 50 | 1012.2 |
| 20260503011514 | 71 | 354 | 1.7 | 9.6 | 0.00 | 0.00 | 0.00 | 51 | 1012.3 |
| 20260503010025 | 71 | 59 | 1.7 | 9.6 | 0.00 | 0.00 | 0.00 | 50 | 1012.3 |
| 20260503004532 | 71 | 349 | 4.3 | 12.2 | 0.00 | 0.00 | 0.00 | 50 | 1012.5 |
| 20260503003050 | 71 | 25 | 1.7 | 10.4 | 0.00 | 0.00 | 0.00 | 50 | 1012.5 |
| 20260503001609 | 71 | 54 | 4.3 | 13.0 | 0.00 | 0.00 | 0.00 | 50 | 1012.4 |
| 20260503000104 | 71 | 339 | 3.5 | 12.2 | 0.00 | 0.00 | 0.00 | 50 | 1012.6 |
| 20260503000006 | 71 | 316 | 3.5 | 12.2 | 0.00 | 0.00 | 0.00 | 50 | 1012.6 |
| 20260502234553 | 71 | 301 | 3.5 | 11.3 | 0.00 | 0.00 | 0.00 | 48 | 1012.7 |
| 20260502233019 | 72 | 239 | 4.3 | 11.3 | 0.00 | 0.00 | 0.00 | 48 | 1013.0 |
| 20260502231602 | 72 | 8 | 2.6 | 8.7 | 0.00 | 0.00 | 0.00 | 48 | 1013.3 |
| 20260502230017 | 71 | 71 | 4.3 | 13.9 | 0.00 | 0.00 | 0.00 | 48 | 1013.5 |
| 20260502224526 | 71 | 32 | 3.5 | 10.4 | 0.00 | 0.00 | 0.00 | 51 | 1013.7 |
| 20260502223033 | 71 | 359 | 1.7 | 10.4 | 0.00 | 0.00 | 0.00 | 52 | 1013.9 |
| 20260502221546 | 71 | 16 | 2.6 | 9.6 | 0.00 | 0.00 | 0.00 | 54 | 1014.1 |
| 20260502220031 | 71 | 54 | 1.7 | 7.0 | 0.00 | 0.00 | 0.00 | 56 | 1014.3 |
| 20260502214526 | 70 | 287 | 2.6 | 5.2 | 0.00 | 0.00 | 0.00 | 56 | 1014.4 |
| 20260502213039 | 70 | 331 | 1.7 | 11.3 | 0.00 | 0.00 | 0.00 | 55 | 1014.5 |
| 20260502211542 | 70 | 333 | 2.6 | 7.0 | 0.00 | 0.00 | 0.00 | 58 | 1014.6 |